When you browse on this site, cookies collect data to enhance your experience and personalize the content and advertising you see.
Visit our Privacy Policy to learn more. By continuing to use the site, you agree to this use of cookies and data.
  • In Hungary
  • List of Countries
  • For 7 days
  • Water Temperature
  • Weather Map
  • News
  • Weather Widgets
  • user-avatar
    Login

    Hourly Weather Arauca

    Today, 12 November, Tuesday

    Time Temperature Precipitation Wind Pressure Humidity
    00:00 +24°C° 0.1 mm 1 mps 746 mmHg 94%
    01:00 +24°C° 0.1 mm 1 mps 746 mmHg 94%
    02:00 +24°C° 0 mm 1 mps 746 mmHg 94%
    03:00 +24°C° 0 mm 1 mps 745 mmHg 94%
    04:00 +24°C° 0 mm 1 mps 745 mmHg 94%
    05:00 +24°C° 0 mm 1 mps 746 mmHg 93%
    06:00 +25°C° 0 mm 1 mps 746 mmHg 92%
    07:00 +26°C° 0 mm 1 mps 747 mmHg 90%
    08:00 +27°C° 0.8 mm 1 mps 747 mmHg 88%
    09:00 +29°C° 0.8 mm 1 mps 747 mmHg 86%
    10:00 +30°C° 0.8 mm 1 mps 747 mmHg 83%
    11:00 +30°C° 1.4 mm 1 mps 746 mmHg 81%
    12:00 +31°C° 1.4 mm 1 mps 745 mmHg 80%
    13:00 +31°C° 1.4 mm 2 mps 744 mmHg 78%
    14:00 +31°C° 0.1 mm 1 mps 744 mmHg 79%
    15:00 +31°C° 0.1 mm 1 mps 743 mmHg 79%
    16:00 +31°C° 0.1 mm 1 mps 743 mmHg 80%
    17:00 +29°C° 0.3 mm 1 mps 744 mmHg 84%
    18:00 +28°C° 0.3 mm 1 mps 744 mmHg 88%
    19:00 +27°C° 0.3 mm 1 mps 745 mmHg 92%
    20:00 +26°C° 0.4 mm 1 mps 745 mmHg 92%
    21:00 +26°C° 0.4 mm 1 mps 746 mmHg 93%
    22:00 +26°C° 0.4 mm 1 mps 746 mmHg 93%
    23:00 +25°C° 0.4 mm 1 mps 746 mmHg 94%

    Tomorrow, 13 November, Wednesday

    Time Temperature Precipitation Wind Pressure Humidity
    00:00 +25°C° 0.4 mm 1 mps 746 mmHg 95%
    01:00 +25°C° 0.4 mm 1 mps 745 mmHg 96%
    02:00 +25°C° 0.3 mm 1 mps 745 mmHg 97%
    03:00 +25°C° 0.3 mm 1 mps 745 mmHg 97%
    04:00 +24°C° 0.3 mm 1 mps 745 mmHg 98%
    05:00 +25°C° 0.1 mm 1 mps 745 mmHg 97%
    06:00 +25°C° 0.1 mm 1 mps 746 mmHg 97%
    07:00 +26°C° 0.1 mm 1 mps 747 mmHg 96%
    08:00 +27°C° 1.2 mm 1 mps 747 mmHg 93%
    09:00 +28°C° 1.2 mm 1 mps 747 mmHg 89%
    10:00 +30°C° 1.2 mm 1 mps 747 mmHg 86%
    11:00 +30°C° 1.3 mm 1 mps 746 mmHg 84%
    12:00 +30°C° 1.3 mm 2 mps 745 mmHg 83%
    13:00 +31°C° 1.3 mm 2 mps 744 mmHg 81%
    14:00 +30°C° 1.6 mm 1 mps 744 mmHg 84%
    15:00 +30°C° 1.6 mm 1 mps 744 mmHg 87%
    16:00 +30°C° 1.6 mm 1 mps 743 mmHg 90%
    17:00 +29°C° 0.5 mm 1 mps 744 mmHg 91%
    18:00 +27°C° 0.5 mm 1 mps 744 mmHg 92%
    19:00 +26°C° 0.5 mm 1 mps 745 mmHg 93%
    20:00 +26°C° 0.1 mm 1 mps 745 mmHg 94%
    21:00 +26°C° 0.1 mm 1 mps 746 mmHg 94%
    22:00 +25°C° 0.1 mm 1 mps 746 mmHg 95%
    23:00 +25°C° 0.3 mm 1 mps 746 mmHg 95%

    Day after tomorrow, 14 November, Thursday

    Time Temperature Precipitation Wind Pressure Humidity
    00:00 +23°C° 0.3 mm 0 mps 746 mmHg 96%
    01:00 +23°C° 0.3 mm 0 mps 745 mmHg 96%
    02:00 +25°C° 1.1 mm 1 mps 745 mmHg 97%
    03:00 +25°C° 1.1 mm 1 mps 746 mmHg 97%
    04:00 +24°C° 1.1 mm 1 mps 746 mmHg 98%
    05:00 +25°C° 1.7 mm 1 mps 746 mmHg 98%
    06:00 +25°C° 1.7 mm 1 mps 747 mmHg 98%
    07:00 +25°C° 1.7 mm 2 mps 747 mmHg 98%
    08:00 +27°C° 0.7 mm 2 mps 747 mmHg 94%
    09:00 +28°C° 0.7 mm 2 mps 748 mmHg 90%
    10:00 +30°C° 0.7 mm 2 mps 748 mmHg 86%
    11:00 +31°C° 0.1 mm 1 mps 747 mmHg 80%
    12:00 +32°C° 0.1 mm 1 mps 746 mmHg 73%
    13:00 +33°C° 0.1 mm 1 mps 746 mmHg 66%
    14:00 +32°C° 0 mm 1 mps 745 mmHg 70%
    15:00 +32°C° 0 mm 2 mps 745 mmHg 75%
    16:00 +31°C° 0 mm 2 mps 744 mmHg 79%
    17:00 +30°C° 0 mm 2 mps 745 mmHg 83%
    18:00 +28°C° 0 mm 1 mps 745 mmHg 87%
    19:00 +27°C° 0 mm 1 mps 746 mmHg 91%
    20:00 +26°C° 0 mm 1 mps 746 mmHg 93%
    21:00 +26°C° 0 mm 1 mps 746 mmHg 94%
    22:00 +26°C° 0 mm 1 mps 747 mmHg 96%
    23:00 +25°C° 0 mm 1 mps 746 mmHg 96%

    15 November, Friday

    Time Temperature Precipitation Wind Pressure Humidity
    00:00 +25°C° 0 mm 1 mps 746 mmHg 97%
    01:00 +25°C° 0 mm 1 mps 746 mmHg 97%
    02:00 +25°C° 0 mm 1 mps 746 mmHg 97%
    03:00 +25°C° 0 mm 1 mps 745 mmHg 98%
    04:00 +25°C° 0 mm 1 mps 745 mmHg 98%
    05:00 +25°C° 0 mm 1 mps 746 mmHg 96%
    06:00 +26°C° 0 mm 1 mps 747 mmHg 94%
    07:00 +26°C° 0 mm 2 mps 747 mmHg 92%
    08:00 +28°C° 0.2 mm 2 mps 747 mmHg 86%
    09:00 +29°C° 0.2 mm 2 mps 747 mmHg 81%
    10:00 +30°C° 0.2 mm 2 mps 747 mmHg 75%
    11:00 +31°C° 0 mm 2 mps 746 mmHg 72%
    12:00 +32°C° 0 mm 2 mps 745 mmHg 69%
    13:00 +33°C° 0 mm 3 mps 744 mmHg 66%
    14:00 +32°C° 0 mm 2 mps 744 mmHg 70%
    15:00 +31°C° 0 mm 2 mps 743 mmHg 74%
    16:00 +31°C° 0 mm 2 mps 743 mmHg 78%
    17:00 +30°C° 0 mm 2 mps 743 mmHg 80%
    18:00 +28°C° 0 mm 2 mps 744 mmHg 83%
    19:00 +27°C° 0 mm 2 mps 744 mmHg 86%
    20:00 +27°C° 0.2 mm 2 mps 745 mmHg 88%
    21:00 +26°C° 0.2 mm 1 mps 745 mmHg 90%
    22:00 +26°C° 0.2 mm 1 mps 745 mmHg 93%
    23:00 +26°C° 0.1 mm 1 mps 745 mmHg 93%

    16 November, Saturday

    Time Temperature Precipitation Wind Pressure Humidity
    00:00 +25°C° 0.1 mm 1 mps 745 mmHg 93%
    01:00 +25°C° 0.1 mm 1 mps 745 mmHg 94%
    02:00 +25°C° 0 mm 1 mps 744 mmHg 95%
    03:00 +25°C° 0 mm 1 mps 744 mmHg 95%
    04:00 +25°C° 0 mm 1 mps 744 mmHg 96%
    05:00 +25°C° 0 mm 1 mps 745 mmHg 95%
    06:00 +26°C° 0 mm 1 mps 745 mmHg 93%
    07:00 +24°C° 0 mm 0 mps 746 mmHg 92%
    08:00 +28°C° 0 mm 1 mps 746 mmHg 86%
    09:00 +29°C° 0 mm 1 mps 746 mmHg 80%
    10:00 +30°C° 0 mm 2 mps 746 mmHg 74%
    11:00 +31°C° 0 mm 1 mps 745 mmHg 72%
    12:00 +32°C° 0 mm 1 mps 744 mmHg 69%
    13:00 +32°C° 0 mm 1 mps 743 mmHg 67%
    14:00 +32°C° 0 mm 1 mps 743 mmHg 71%
    15:00 +32°C° 0 mm 1 mps 742 mmHg 75%
    16:00 +31°C° 0 mm 1 mps 742 mmHg 79%
    17:00 +30°C° 0.2 mm 1 mps 742 mmHg 83%
    18:00 +28°C° 0.2 mm 1 mps 743 mmHg 87%
    19:00 +27°C° 0.2 mm 1 mps 743 mmHg 90%
    20:00 +26°C° 0.4 mm 1 mps 744 mmHg 91%
    21:00 +26°C° 0.4 mm 1 mps 744 mmHg 92%
    22:00 +26°C° 0.4 mm 1 mps 745 mmHg 92%
    23:00 +25°C° 0.2 mm 1 mps 745 mmHg 92%

    17 November, Sunday

    Time Temperature Precipitation Wind Pressure Humidity
    00:00 +25°C° 0.2 mm 1 mps 744 mmHg 93%
    01:00 +25°C° 0.2 mm 1 mps 744 mmHg 93%
    02:00 +25°C° 0 mm 1 mps 744 mmHg 94%
    03:00 +25°C° 0 mm 1 mps 744 mmHg 94%
    04:00 +25°C° 0 mm 1 mps 744 mmHg 95%
    05:00 +25°C° 0 mm 1 mps 744 mmHg 94%
    06:00 +25°C° 0 mm 1 mps 745 mmHg 94%
    07:00 +26°C° 0 mm 1 mps 745 mmHg 93%
    08:00 +27°C° 0 mm 1 mps 746 mmHg 86%
    09:00 +29°C° 0 mm 1 mps 746 mmHg 79%
    10:00 +30°C° 0 mm 2 mps 746 mmHg 72%
    11:00 +31°C° 0 mm 2 mps 745 mmHg 71%
    12:00 +31°C° 0 mm 1 mps 744 mmHg 69%
    13:00 +32°C° 0 mm 1 mps 743 mmHg 68%
    14:00 +31°C° 0 mm 1 mps 743 mmHg 72%
    15:00 +31°C° 0 mm 1 mps 742 mmHg 76%
    16:00 +30°C° 0 mm 1 mps 742 mmHg 80%
    17:00 +29°C° 0 mm 1 mps 742 mmHg 83%
    18:00 +28°C° 0 mm 1 mps 743 mmHg 86%
    19:00 +27°C° 0 mm 1 mps 744 mmHg 90%
    20:00 +26°C° 0 mm 1 mps 744 mmHg 90%
    21:00 +26°C° 0 mm 1 mps 745 mmHg 91%
    22:00 +26°C° 0 mm 1 mps 745 mmHg 92%
    23:00 +25°C° 0.1 mm 1 mps 745 mmHg 92%
    Show more